User: anonymous   Login
Location: Unspecified
(34.8840°S, 56.1820°W)
Time: 04:34:40
(UTC+00:00)
Language:

LANDSAT 8 - Orbit

View from above orbital plane
View from above orbital plane
View from above satellite
View from above satellite

Ground track
Ground track

The orbit data is extracted from the following two-line orbital elements,

1 39084U 13008A   18320.78919469  .00000093  00000-0  30603-4 0  9991
2 39084  98.2140  28.8599 0001122  86.5205 273.6111 14.57112146306432
Epoch (UTC): 16 November 2018 18:56:26
Eccentricity: 0.0001122
inclination: 98.2140°
perigee height: 702 km
apogee height: 703 km
right ascension of ascending node: 28.8599°
argument of perigee: 86.5205°
revolutions per day: 14.57112146
mean anomaly at epoch: 273.6111°
orbit number at epoch: 30643

The dashed part of the orbit path shows where the satellite is in the earth's shadow,  

DLR